Time,TemperatureF,DewpointF,PressureIn,WindDirection,WindDirectionDegrees,WindSpeedMPH,WindSpeedGustMPH,Humidity,HourlyPrecipIn,Conditions,Clouds,dailyrainin,SoftwareType,DateUTC
2013-07-24 00:12:00,65.3,54.9,29.93,North,0,3.7,-999.0,69,-99.99,,,0.00,Acu-Link.com,2013-07-24 05:12:00,
2013-07-24 00:27:00,64.9,54.9,29.94,NNE,22,2.2,-999.0,70,-99.99,,,0.00,Acu-Link.com,2013-07-24 05:27:00,
2013-07-24 00:42:00,64.8,55.2,29.94,NNW,337,2.2,-999.0,71,-99.99,,,0.00,Acu-Link.com,2013-07-24 05:42:00,
2013-07-24 00:57:00,64.8,55.6,29.94,NW,315,1.1,-999.0,72,-99.99,,,0.00,Acu-Link.com,2013-07-24 05:57:00,
2013-07-24 01:12:00,63.7,54.9,29.94,NNW,337,3.2,-999.0,73,-99.99,,,0.00,Acu-Link.com,2013-07-24 06:12:00,
2013-07-24 01:27:00,63.9,55.4,29.94,North,0,2.2,-999.0,74,-99.99,,,0.00,Acu-Link.com,2013-07-24 06:27:00,
2013-07-24 01:43:00,62.6,54.9,29.95,WNW,292,2.2,-999.0,76,-99.99,,,0.00,Acu-Link.com,2013-07-24 06:43:00,
2013-07-24 01:58:00,63.5,55.4,29.94,NNW,337,1.7,-999.0,75,-99.99,,,0.00,Acu-Link.com,2013-07-24 06:58:00,
2013-07-24 02:13:00,62.1,54.8,29.94,WNW,292,1.7,-999.0,77,-99.99,,,0.00,Acu-Link.com,2013-07-24 07:13:00,
2013-07-24 02:29:00,61.3,54.4,29.94,ENE,67,0.0,-999.0,78,-99.99,,,0.00,Acu-Link.com,2013-07-24 07:29:00,
2013-07-24 02:44:00,61.3,54.4,29.94,NW,315,2.2,-999.0,78,-99.99,,,0.00,Acu-Link.com,2013-07-24 07:44:00,
2013-07-24 02:59:00,61.3,54.7,29.94,NW,315,1.7,-999.0,79,-99.99,,,0.00,Acu-Link.com,2013-07-24 07:59:00,
2013-07-24 03:15:00,61.7,54.8,29.94,NNW,337,2.2,-999.0,78,-99.99,,,0.00,Acu-Link.com,2013-07-24 08:15:00,
2013-07-24 03:30:00,61.0,54.4,29.95,WNW,292,2.2,-999.0,79,-99.99,,,0.00,Acu-Link.com,2013-07-24 08:30:00,
2013-07-24 03:45:00,60.6,54.4,29.95,West,270,1.1,-999.0,80,-99.99,,,0.00,Acu-Link.com,2013-07-24 08:45:00,
2013-07-24 04:01:00,60.1,54.2,29.95,NNW,337,1.7,-999.0,81,-99.99,,,0.00,Acu-Link.com,2013-07-24 09:01:00,
2013-07-24 04:16:00,60.1,54.6,29.96,NW,315,1.7,-999.0,82,-99.99,,,0.00,Acu-Link.com,2013-07-24 09:16:00,
2013-07-24 04:31:00,59.4,54.2,29.95,East,90,0.0,-999.0,83,-99.99,,,0.00,Acu-Link.com,2013-07-24 09:31:00,
2013-07-24 05:01:00,58.5,54.0,29.97,NNW,337,0.0,-999.0,85,-99.99,,,0.00,Acu-Link.com,2013-07-24 10:01:00,
2013-07-24 05:17:00,58.6,54.1,29.96,West,270,2.2,-999.0,85,-99.99,,,0.00,Acu-Link.com,2013-07-24 10:17:00,
2013-07-24 05:32:00,59.0,54.5,29.97,WSW,247,1.1,-999.0,85,-99.99,,,0.00,Acu-Link.com,2013-07-24 10:32:00,
2013-07-24 05:47:00,59.2,54.7,29.97,West,270,1.7,-999.0,85,-99.99,,,0.00,Acu-Link.com,2013-07-24 10:47:00,
2013-07-24 06:02:00,59.4,54.9,29.97,NW,315,1.7,-999.0,85,-99.99,,,0.00,Acu-Link.com,2013-07-24 11:02:00,
2013-07-24 06:17:00,59.4,54.9,29.97,North,0,2.2,-999.0,85,-99.99,,,0.00,Acu-Link.com,2013-07-24 11:17:00,
2013-07-24 06:33:00,60.1,55.2,29.98,NW,315,2.7,-999.0,84,-99.99,,,0.00,Acu-Link.com,2013-07-24 11:33:00,
2013-07-24 06:48:00,61.2,55.7,29.98,NNE,22,1.1,-999.0,82,-99.99,,,0.00,Acu-Link.com,2013-07-24 11:48:00,
2013-07-24 07:03:00,62.1,55.9,29.98,WNW,292,2.2,-999.0,80,-99.99,,,0.00,Acu-Link.com,2013-07-24 12:03:00,
2013-07-24 07:19:00,63.9,56.5,29.99,WNW,292,2.7,-999.0,77,-99.99,,,0.00,Acu-Link.com,2013-07-24 12:19:00,
2013-07-24 07:34:00,66.0,57.5,29.99,West,270,4.2,-999.0,74,-99.99,,,0.00,Acu-Link.com,2013-07-24 12:34:00,
2013-07-24 07:49:00,68.2,58.0,29.99,NNW,337,2.7,-999.0,70,-99.99,,,0.00,Acu-Link.com,2013-07-24 12:49:00,
2013-07-24 08:05:00,71.8,57.6,29.98,NE,45,4.2,-999.0,61,-99.99,,,0.00,Acu-Link.com,2013-07-24 13:05:00,
2013-07-24 08:20:00,71.4,58.1,29.98,ESE,112,2.2,-999.0,63,-99.99,,,0.00,Acu-Link.com,2013-07-24 13:20:00,
2013-07-24 08:35:00,70.7,57.5,29.99,SSW,202,0.0,-999.0,63,-99.99,,,0.00,Acu-Link.com,2013-07-24 13:35:00,
2013-07-24 08:50:00,73.0,56.9,30.00,West,270,2.7,-999.0,57,-99.99,,,0.00,Acu-Link.com,2013-07-24 13:50:00,
2013-07-24 09:05:00,74.3,57.1,30.00,West,270,1.7,-999.0,55,-99.99,,,0.00,Acu-Link.com,2013-07-24 14:05:00,
2013-07-24 09:20:00,73.6,57.9,29.99,South,180,0.0,-999.0,58,-99.99,,,0.00,Acu-Link.com,2013-07-24 14:20:00,
2013-07-24 09:36:00,75.6,58.3,30.00,SSW,202,5.3,-999.0,55,-99.99,,,0.00,Acu-Link.com,2013-07-24 14:36:00,
2013-07-24 09:51:00,75.0,57.2,29.99,NW,315,5.3,-999.0,54,-99.99,,,0.00,Acu-Link.com,2013-07-24 14:51:00,
2013-07-24 10:06:00,72.7,57.1,29.99,WNW,292,7.3,-999.0,58,-99.99,,,0.00,Acu-Link.com,2013-07-24 15:06:00,
2013-07-24 10:36:00,73.6,56.9,29.99,West,270,3.2,-999.0,56,-99.99,,,0.00,Acu-Link.com,2013-07-24 15:36:00,
2013-07-24 10:52:00,73.9,57.7,29.98,WNW,292,5.3,-999.0,57,-99.99,,,0.00,Acu-Link.com,2013-07-24 15:52:00,
2013-07-24 11:07:00,75.9,58.6,29.99,West,270,8.9,-999.0,55,-99.99,,,0.00,Acu-Link.com,2013-07-24 16:07:00,
2013-07-24 11:37:00,74.1,57.9,29.98,WNW,292,2.7,-999.0,57,-99.99,,,0.00,Acu-Link.com,2013-07-24 16:37:00,
2013-07-24 11:53:00,75.0,57.7,29.98,West,270,4.7,-999.0,55,-99.99,,,0.00,Acu-Link.com,2013-07-24 16:53:00,
2013-07-24 12:08:00,75.7,57.3,29.98,NW,315,5.3,-999.0,53,-99.99,,,0.00,Acu-Link.com,2013-07-24 17:08:00,
2013-07-24 12:23:00,76.5,58.1,29.97,West,270,6.8,-999.0,53,-99.99,,,0.00,Acu-Link.com,2013-07-24 17:23:00,
2013-07-24 12:38:00,78.1,59.0,29.97,West,270,5.3,-999.0,52,-99.99,,,0.00,Acu-Link.com,2013-07-24 17:38:00,
2013-07-24 12:53:00,79.5,58.6,29.97,WNW,292,7.8,-999.0,49,-99.99,,,0.00,Acu-Link.com,2013-07-24 17:53:00,
2013-07-24 13:08:00,78.4,58.2,29.97,NE,45,2.2,-999.0,50,-99.99,,,0.00,Acu-Link.com,2013-07-24 18:08:00,
2013-07-24 13:23:00,78.8,59.1,29.97,NE,45,4.2,-999.0,51,-99.99,,,0.00,Acu-Link.com,2013-07-24 18:23:00,
2013-07-24 13:38:00,80.1,59.2,29.96,West,270,7.3,-999.0,49,-99.99,,,0.00,Acu-Link.com,2013-07-24 18:38:00,
2013-07-24 13:53:00,82.0,58.5,29.95,WSW,247,9.4,-999.0,45,-99.99,,,0.00,Acu-Link.com,2013-07-24 18:53:00,
2013-07-24 14:09:00,81.3,59.1,29.95,ENE,67,4.7,-999.0,47,-99.99,,,0.00,Acu-Link.com,2013-07-24 19:09:00,
2013-07-24 14:24:00,78.3,58.1,29.95,WSW,247,3.7,-999.0,50,-99.99,,,0.00,Acu-Link.com,2013-07-24 19:24:00,
2013-07-24 14:39:00,79.9,59.6,29.95,West,270,5.8,-999.0,50,-99.99,,,0.00,Acu-Link.com,2013-07-24 19:39:00,
2013-07-24 14:55:00,82.2,60.5,29.93,WNW,292,4.7,-999.0,48,-99.99,,,0.00,Acu-Link.com,2013-07-24 19:55:00,
2013-07-24 15:10:00,80.8,59.3,29.94,North,0,3.2,-999.0,48,-99.99,,,0.00,Acu-Link.com,2013-07-24 20:10:00,
2013-07-24 15:25:00,81.0,59.4,29.93,WNW,292,5.3,-999.0,48,-99.99,,,0.00,Acu-Link.com,2013-07-24 20:25:00,
2013-07-24 15:40:00,81.3,59.7,29.93,NNW,337,6.8,-999.0,48,-99.99,,,0.00,Acu-Link.com,2013-07-24 20:40:00,
2013-07-24 15:56:00,81.1,59.5,29.92,West,270,8.9,-999.0,48,-99.99,,,0.00,Acu-Link.com,2013-07-24 20:56:00,
2013-07-24 16:11:00,83.3,60.3,29.91,NW,315,7.8,-999.0,46,-99.99,,,0.00,Acu-Link.com,2013-07-24 21:11:00,
2013-07-24 16:26:00,82.0,59.8,29.91,South,180,7.8,-999.0,47,-99.99,,,0.00,Acu-Link.com,2013-07-24 21:26:00,
2013-07-24 16:41:00,82.9,60.6,29.91,WSW,247,5.8,-999.0,47,-99.99,,,0.00,Acu-Link.com,2013-07-24 21:41:00,
2013-07-24 16:57:00,81.9,60.3,29.91,West,270,4.2,-999.0,48,-99.99,,,0.00,Acu-Link.com,2013-07-24 21:57:00,
2013-07-24 17:12:00,84.0,59.7,29.91,NNW,337,4.2,-999.0,44,-99.99,,,0.00,Acu-Link.com,2013-07-24 22:12:00,
2013-07-24 17:27:00,84.6,59.6,29.90,WSW,247,7.8,-999.0,43,-99.99,,,0.00,Acu-Link.com,2013-07-24 22:27:00,
2013-07-24 17:42:00,85.1,59.4,29.90,West,270,6.3,-999.0,42,-99.99,,,0.00,Acu-Link.com,2013-07-24 22:42:00,
2013-07-24 17:57:00,83.3,59.7,29.90,WSW,247,3.2,-999.0,45,-99.99,,,0.00,Acu-Link.com,2013-07-24 22:57:00,
2013-07-24 18:13:00,84.2,59.2,29.89,WNW,292,2.7,-999.0,43,-99.99,,,0.00,Acu-Link.com,2013-07-24 23:13:00,
2013-07-24 18:28:00,81.9,59.1,29.89,ESE,112,1.1,-999.0,46,-99.99,,,0.00,Acu-Link.com,2013-07-24 23:28:00,
2013-07-24 18:43:00,86.4,59.2,29.89,West,270,2.7,-999.0,40,-99.99,,,0.00,Acu-Link.com,2013-07-24 23:43:00,
2013-07-24 18:58:00,86.4,59.2,29.90,West,270,6.3,-999.0,40,-99.99,,,0.00,Acu-Link.com,2013-07-24 23:58:00,
2013-07-24 19:13:00,86.2,59.0,29.89,WSW,247,4.2,-999.0,40,-99.99,,,0.00,Acu-Link.com,2013-07-25 00:13:00,
2013-07-24 19:29:00,85.6,59.2,29.90,South,180,3.7,-999.0,41,-99.99,,,0.00,Acu-Link.com,2013-07-25 00:29:00,
2013-07-24 19:44:00,82.4,60.7,29.91,ESE,112,4.2,-999.0,48,-99.99,,,0.00,Acu-Link.com,2013-07-25 00:44:00,
2013-07-24 19:59:00,82.2,60.5,29.90,SE,135,3.2,-999.0,48,-99.99,,,0.00,Acu-Link.com,2013-07-25 00:59:00,
2013-07-24 20:14:00,80.8,61.5,29.90,ESE,112,4.2,-999.0,52,-99.99,,,0.00,Acu-Link.com,2013-07-25 01:14:00,
2013-07-24 20:29:00,80.1,61.9,29.90,ESE,112,2.2,-999.0,54,-99.99,,,0.00,Acu-Link.com,2013-07-25 01:29:00,
2013-07-24 20:44:00,79.0,61.4,29.91,SSE,157,2.2,-999.0,55,-99.99,,,0.00,Acu-Link.com,2013-07-25 01:44:00,
2013-07-24 20:59:00,76.6,61.7,29.89,SE,135,1.7,-999.0,60,-99.99,,,0.00,Acu-Link.com,2013-07-25 01:59:00,
2013-07-24 21:15:00,75.6,61.2,29.89,SSE,157,2.2,-999.0,61,-99.99,,,0.00,Acu-Link.com,2013-07-25 02:15:00,
2013-07-24 21:30:00,74.8,60.9,29.89,ESE,112,2.2,-999.0,62,-99.99,,,0.00,Acu-Link.com,2013-07-25 02:30:00,
2013-07-24 21:45:00,73.9,60.9,29.90,SSE,157,2.2,-999.0,64,-99.99,,,0.00,Acu-Link.com,2013-07-25 02:45:00,
2013-07-24 22:01:00,73.0,60.5,29.91,SSE,157,1.7,-999.0,65,-99.99,,,0.00,Acu-Link.com,2013-07-25 03:01:00,
2013-07-24 22:31:00,71.1,60.4,29.90,SSE,157,2.2,-999.0,69,-99.99,,,0.00,Acu-Link.com,2013-07-25 03:31:00,
2013-07-24 22:47:00,70.5,60.2,29.91,WSW,247,1.7,-999.0,70,-99.99,,,0.00,Acu-Link.com,2013-07-25 03:47:00,
2013-07-24 23:02:00,69.8,60.0,29.92,SE,135,1.1,-999.0,71,-99.99,,,0.00,Acu-Link.com,2013-07-25 04:02:00,
2013-07-24 23:18:00,69.4,60.4,29.92,SSE,157,0.0,-999.0,73,-99.99,,,0.00,Acu-Link.com,2013-07-25 04:18:00,
2013-07-24 23:33:00,68.9,59.9,29.92,SW,225,0.0,-999.0,73,-99.99,,,0.00,Acu-Link.com,2013-07-25 04:33:00,
2013-07-24 23:48:00,68.5,59.5,29.92,WSW,247,0.0,-999.0,73,-99.99,,,0.00,Acu-Link.com,2013-07-25 04:48:00,